Regional Weather Roundup
Issued by NWS Little Rock, AR

Home | Current Version | Previous Version | Text Only | Print | Product List | Glossary On
Versions: 1 2 3 4 5 6 7 8 9 10 11 12 13 14 15 16 17 18 19 20 21 22 23 24 25 26 27 28 29 30 31 32 33 34 35 36 37 38 39 40 41 42 43 44 45 46 47 48 49 50
622
ASUS44 KLZK 061805
RWRLZK

WEATHER ROUNDUP FOR ARKANSAS
NATIONAL WEATHER SERVICE LITTLE ROCK AR
1200 PM CST TUE DEC 06 2016

NOTE: "FAIR" INDICATES FEW OR NO CLOUDS BELOW 12,000 FEET WITH NO
SIGNIFICANT WEATHER AND/OR OBSTRUCTIONS TO VISIBILITY.

ARZ001-003-010-029-061900-
NORTHWEST ARKANSAS

CITY           SKY/WX    TMP DP  RH WIND       PRES   REMARKS
FAYETTEVILLE   CLOUDY    41  37  86 N10       30.01S
6HR MIN TEMP:  40; 6HR MAX TEMP:  43;

FORT SMITH     CLOUDY    49  40  71 NW12      30.01S
6HR MIN TEMP:  43; 6HR MAX TEMP:  49;

HARRISON       CLOUDY    40  38  93 NW9       29.98S
6HR MIN TEMP:  38; 6HR MAX TEMP:  41;

BENTONVILLE    MOSUNNY   45  28  53 N10       30.02S
6HR MIN TEMP:  39; 6HR MAX TEMP:  45;

ROGERS         CLOUDY    42  33  70 N10       30.02R
6HR MIN TEMP:  38; 6HR MAX TEMP:  42;

SILOAM SPGS    CLOUDY    43  34  70 N14       30.02S
6HR MIN TEMP:  39; 6HR MAX TEMP:  45;

HIGHFILL       CLOUDY    45  34  65 N14       30.01S
6HR MIN TEMP:  39; 6HR MAX TEMP:  46;

SPRINGDALE     CLOUDY    41  36  81 N9        30.03R
$$

ARZ004-005-016-061900-
NORTH CENTRAL ARKANSAS

CITY           SKY/WX    TMP DP  RH WIND       PRES   REMARKS
BATESVILLE     CLOUDY    52  41  66 W12       29.94S
6HR MIN TEMP:  41; 6HR MAX TEMP:  52;

FLIPPIN        CLOUDY    45  36  70 NW12      29.96S
6HR MIN TEMP:  43; 6HR MAX TEMP:  45;

MTN HOME       CLOUDY    44  38  79 VRB5      29.96S
6HR MIN TEMP:  40; 6HR MAX TEMP:  44;

$$

ARZ040-041-061900-
WEST CENTRAL ARKANSAS

CITY           SKY/WX    TMP DP  RH WIND       PRES   REMARKS
MENA           PTSUNNY   52  45  76 N8        29.96S
MOUNT IDA      CLOUDY    50  42  74 N7        29.93F
6HR MIN TEMP:  45; 6HR MAX TEMP:  50;

$$

ARZ009-017-025-026-028-061900-
NORTHEAST ARKANSAS

CITY           SKY/WX    TMP DP  RH WIND       PRES   REMARKS
JONESBORO      SUNNY     51  41  68 NW12      29.89S
6HR MIN TEMP:  42; 6HR MAX TEMP:  51; 6HR PCP: TRACE;

NEWPORT        SUNNY     54  42  64 NW14      29.92S
6HR MIN TEMP:  42; 6HR MAX TEMP:  54;

WALNUT RIDGE   SUNNY     54  39  58 NW13      29.90S
6HR MIN TEMP:  39; 6HR MAX TEMP:  54;

BLYTHEVILLE    CLOUDY    51  44  77 N16       29.89S
6HR MIN TEMP:  43; 6HR MAX TEMP:  51; 6HR PCP:  0.02;

NW BLYTHEVILLE CLOUDY    48  43  81 NW9G18    29.89R
$$

ARZ022-023-033-042-044-061900-
CENTRAL ARKANSAS

CITY           SKY/WX    TMP DP  RH WIND       PRES   REMARKS
LITTLE ROCK    PTSUNNY   51  44  77 N12       29.95F
6HR MIN TEMP:  44; 6HR MAX TEMP:  51;

JACKSONVILLE   MOSUNNY   52  42  70 NW10G18   29.94F
6HR MIN TEMP:  44; 6HR MAX TEMP:  52;

SEARCY         SUNNY     54  42  64 VRB7      29.95F
6HR MIN TEMP:  40; 6HR MAX TEMP:  54; 6HR PCP:  0.01;

HOT SPRINGS    CLOUDY    51  43  74 VRB7      29.95F
6HR MIN TEMP:  45; 6HR MAX TEMP:  51;

RUSSELLVILLE   PTSUNNY   54  40  59 NW8       29.95F
6HR MIN TEMP:  45; 6HR MAX TEMP:  54;

$$

ARZ036-061900-
EAST ARKANSAS

CITY           SKY/WX    TMP DP  RH WIND       PRES   REMARKS
WEST MEMPHIS   CLOUDY    47  42  83 NW7       29.90R
6HR MIN TEMP:  43; 6HR MAX TEMP:  47; 6HR PCP:  0.02;

$$

ARZ050-053-066-070-073-061900-
SOUTHWEST ARKANSAS

CITY           SKY/WX    TMP DP  RH WIND       PRES   REMARKS
ARKADELPHIA    CLOUDY    52  45  77 N6        29.96F
6HR MIN TEMP:  44; 6HR MAX TEMP:  52;

CAMDEN         CLOUDY    54  45  71 N6        29.95F
TEXARKANA      CLOUDY    53  48  83 N6        29.95F
6HR MIN TEMP:  46; 6HR MAX TEMP:  53;

EL DORADO      CLOUDY    52  47  83 N7        29.94F
6HR MIN TEMP:  45; 6HR MAX TEMP:  52;

DE QUEEN       CLOUDY    54  44  69 NE8       29.95S
6HR MIN TEMP:  47; 6HR MAX TEMP:  54;

$$

ARZ056-057-069-061900-
SOUTHEAST ARKANSAS

CITY           SKY/WX    TMP DP  RH WIND       PRES   REMARKS
PINE BLUFF     CLOUDY    50  44  80 NW9       29.94F
6HR MIN TEMP:  44; 6HR MAX TEMP:  51;

STUTTGART      CLOUDY    48  39  71 NW13      29.94F
6HR MIN TEMP:  45; 6HR MAX TEMP:  48;

MONTICELLO     PTSUNNY   53  44  71 VRB7      29.93S
6HR MIN TEMP:  46; 6HR MAX TEMP:  53;


$$






USA.gov is the U.S. government's official web portal to all federal, state and local government web resources and services.